Time,TemperatureF,DewpointF,PressureIn,WindDirection,WindDirectionDegrees,WindSpeedMPH,WindSpeedGustMPH,Humidity,HourlyPrecipIn,Conditions,Clouds,dailyrainin,SoftwareType,DateUTC
2013-08-17 00:12:00,65.0,63.0,29.26,North,0,0.0,0.0,92,0.00,,,0.00,,2013-08-17 04:12:00,
2013-08-17 00:23:00,65.0,63.0,29.26,North,0,0.0,0.0,93,0.00,,,0.00,,2013-08-17 04:23:00,
2013-08-17 00:44:00,64.0,62.0,29.26,North,0,0.0,0.0,93,0.00,,,0.00,,2013-08-17 04:44:00,
2013-08-17 00:53:00,64.0,62.0,29.26,North,0,0.0,0.0,93,0.00,,,0.00,,2013-08-17 04:53:00,
2013-08-17 01:13:00,64.0,62.0,29.26,North,0,0.0,0.0,94,0.00,,,0.00,,2013-08-17 05:13:00,
2013-08-17 01:23:00,64.0,62.0,29.26,North,0,0.0,0.0,94,0.00,,,0.00,,2013-08-17 05:23:00,
2013-08-17 01:42:00,64.0,63.0,29.26,North,0,0.0,0.0,95,0.00,,,0.00,,2013-08-17 05:42:00,
2013-08-17 01:52:00,64.0,63.0,29.26,North,0,0.0,0.0,96,0.00,,,0.00,,2013-08-17 05:52:00,
2013-08-17 02:12:00,64.0,63.0,29.26,North,0,0.0,0.0,96,0.00,,,0.00,,2013-08-17 06:12:00,
2013-08-17 02:21:00,64.0,63.0,29.26,North,0,0.0,0.0,96,0.00,,,0.00,,2013-08-17 06:21:00,
2013-08-17 02:42:00,64.0,63.0,29.26,North,0,0.0,0.0,96,0.00,,,0.00,,2013-08-17 06:42:00,
2013-08-17 02:52:00,63.0,62.0,29.26,North,0,0.0,0.0,97,0.00,,,0.00,,2013-08-17 06:52:00,
2013-08-17 03:01:00,63.0,62.0,29.26,North,0,0.0,0.0,97,0.00,,,0.00,,2013-08-17 07:01:00,
2013-08-17 03:11:00,63.0,62.0,29.26,North,0,0.0,0.0,97,0.00,,,0.00,,2013-08-17 07:11:00,
2013-08-17 03:22:00,64.0,63.0,29.26,North,0,0.0,0.0,97,0.00,,,0.00,,2013-08-17 07:22:00,
2013-08-17 03:42:00,64.0,63.0,29.26,North,0,0.0,0.0,97,0.00,,,0.00,,2013-08-17 07:42:00,
2013-08-17 03:52:00,64.0,63.0,29.26,North,0,0.0,0.0,97,0.00,,,0.00,,2013-08-17 07:52:00,
2013-08-17 04:11:00,64.0,63.0,29.26,North,0,0.0,0.0,97,0.00,,,0.00,,2013-08-17 08:11:00,
2013-08-17 04:21:00,64.0,63.0,29.26,North,0,0.0,0.0,97,0.00,,,0.00,,2013-08-17 08:21:00,
2013-08-17 04:33:00,64.0,63.0,29.26,North,0,0.0,0.0,97,0.00,,,0.00,,2013-08-17 08:33:00,
2013-08-17 04:42:00,64.0,63.0,29.26,North,0,0.0,0.0,97,0.00,,,0.00,,2013-08-17 08:42:00,
2013-08-17 04:52:00,64.0,63.0,29.26,North,0,0.0,0.0,97,0.00,,,0.00,,2013-08-17 08:52:00,
2013-08-17 05:02:00,64.0,63.0,29.26,North,0,0.0,0.0,97,0.00,,,0.00,,2013-08-17 09:02:00,
2013-08-17 05:11:00,64.0,63.0,29.26,North,0,0.0,0.0,97,0.00,,,0.00,,2013-08-17 09:11:00,
2013-08-17 05:21:00,63.0,62.0,29.26,North,0,0.0,0.0,97,0.00,,,0.00,,2013-08-17 09:21:00,
2013-08-17 05:43:00,63.0,62.0,29.23,North,0,0.0,0.0,97,0.00,,,0.00,,2013-08-17 09:43:00,
2013-08-17 05:53:00,64.0,63.0,29.23,North,0,0.0,0.0,97,0.00,,,0.00,,2013-08-17 09:53:00,
2013-08-17 06:12:00,63.0,62.0,29.26,North,0,0.0,0.0,97,0.00,,,0.00,,2013-08-17 10:12:00,
2013-08-17 06:23:00,63.0,62.0,29.23,North,0,0.0,0.0,97,0.00,,,0.00,,2013-08-17 10:23:00,
2013-08-17 06:42:00,63.0,62.0,29.23,North,0,0.0,0.0,96,0.00,,,0.00,,2013-08-17 10:42:00,
2013-08-17 06:52:00,63.0,62.0,29.23,North,0,0.0,0.0,96,0.00,,,0.00,,2013-08-17 10:52:00,
2013-08-17 07:12:00,63.0,62.0,29.26,North,0,0.0,0.0,96,0.00,,,0.00,,2013-08-17 11:12:00,
2013-08-17 07:22:00,63.0,61.0,29.26,North,0,0.0,0.0,94,0.00,,,0.00,,2013-08-17 11:22:00,
2013-08-17 07:42:00,63.0,61.0,29.26,North,0,0.0,0.0,94,0.00,,,0.00,,2013-08-17 11:42:00,
2013-08-17 07:52:00,63.0,61.0,29.26,North,0,0.0,0.0,93,0.00,,,0.00,,2013-08-17 11:52:00,
2013-08-17 08:11:00,64.0,62.0,29.26,North,0,0.0,0.0,92,0.00,,,0.00,,2013-08-17 12:11:00,
2013-08-17 08:21:00,64.0,62.0,29.26,North,0,0.0,0.0,93,0.00,,,0.00,,2013-08-17 12:21:00,
2013-08-17 08:42:00,64.0,62.0,29.26,North,0,0.0,0.0,93,0.00,,,0.00,,2013-08-17 12:42:00,
2013-08-17 08:52:00,64.0,62.0,29.26,North,0,0.0,0.0,94,0.00,,,0.00,,2013-08-17 12:52:00,
2013-08-17 09:11:00,64.0,62.0,29.26,North,0,0.0,0.0,93,0.00,,,0.00,,2013-08-17 13:11:00,
2013-08-17 09:22:00,64.0,62.0,29.26,North,0,0.0,0.0,93,0.00,,,0.00,,2013-08-17 13:22:00,
2013-08-17 09:42:00,65.0,61.0,29.29,North,0,0.0,0.0,88,0.00,,,0.00,,2013-08-17 13:42:00,
2013-08-17 09:52:00,65.0,61.0,29.29,North,0,0.0,0.0,88,0.00,,,0.00,,2013-08-17 13:52:00,
2013-08-17 10:11:00,66.0,61.0,29.29,North,0,0.0,0.0,85,0.00,,,0.00,,2013-08-17 14:11:00,
2013-08-17 10:21:00,67.0,61.0,29.29,North,0,0.0,0.0,81,0.00,,,0.00,,2013-08-17 14:21:00,
2013-08-17 10:32:00,67.0,61.0,29.29,North,0,0.0,0.0,81,0.00,,,0.00,,2013-08-17 14:32:00,
2013-08-17 10:42:00,67.0,61.0,29.29,North,0,0.0,0.0,81,0.00,,,0.00,,2013-08-17 14:42:00,
2013-08-17 10:52:00,67.0,61.0,29.29,North,0,0.0,5.0,81,0.00,,,0.00,,2013-08-17 14:52:00,
2013-08-17 11:12:00,68.0,61.0,29.29,North,0,0.0,4.0,79,0.00,,,0.00,,2013-08-17 15:12:00,
2013-08-17 11:22:00,68.0,61.0,29.29,North,0,0.0,4.0,79,0.00,,,0.00,,2013-08-17 15:22:00,
2013-08-17 11:44:00,68.0,61.0,29.29,WSW,253,4.0,7.0,78,0.00,,,0.00,,2013-08-17 15:44:00,
2013-08-17 11:54:00,72.0,62.0,29.29,North,0,0.0,4.0,70,0.00,,,0.00,,2013-08-17 15:54:00,
2013-08-17 12:03:00,72.0,62.0,29.29,North,0,0.0,4.0,70,0.00,,,0.00,,2013-08-17 16:03:00,
2013-08-17 12:12:00,72.0,62.0,29.29,North,0,0.0,4.0,70,0.00,,,0.00,,2013-08-17 16:12:00,
2013-08-17 12:23:00,72.0,62.0,29.29,North,0,0.0,4.0,70,0.00,,,0.00,,2013-08-17 16:23:00,
2013-08-17 12:42:00,71.0,60.0,29.29,WNW,296,4.0,5.0,68,0.00,,,0.00,,2013-08-17 16:42:00,
2013-08-17 12:53:00,72.0,59.0,29.29,North,0,0.0,0.0,63,0.00,,,0.00,,2013-08-17 16:53:00,
2013-08-17 13:12:00,72.0,58.0,29.29,North,0,0.0,0.0,62,0.00,,,0.00,,2013-08-17 17:12:00,
2013-08-17 13:23:00,71.0,60.0,29.29,North,0,0.0,0.0,68,0.00,,,0.00,,2013-08-17 17:23:00,
2013-08-17 13:33:00,71.0,60.0,29.29,North,0,0.0,0.0,68,0.00,,,0.00,,2013-08-17 17:33:00,
2013-08-17 13:42:00,71.0,60.0,29.29,North,0,0.0,0.0,68,0.00,,,0.00,,2013-08-17 17:42:00,
2013-08-17 13:52:00,72.0,61.0,29.26,North,0,0.0,0.0,68,0.00,,,0.00,,2013-08-17 17:52:00,
2013-08-17 14:12:00,73.0,61.0,29.26,North,0,0.0,4.0,65,0.00,,,0.00,,2013-08-17 18:12:00,
2013-08-17 14:21:00,74.0,61.0,29.26,North,0,0.0,0.0,65,0.00,,,0.00,,2013-08-17 18:21:00,
2013-08-17 14:42:00,73.0,58.0,29.26,North,0,0.0,4.0,60,0.00,,,0.00,,2013-08-17 18:42:00,
2013-08-17 14:52:00,73.0,58.0,29.26,WNW,297,4.0,7.0,59,0.00,,,0.00,,2013-08-17 18:52:00,
2013-08-17 15:11:00,74.0,61.0,29.26,North,0,0.0,5.0,63,0.00,,,0.00,,2013-08-17 19:11:00,
2013-08-17 15:21:00,74.0,59.0,29.26,North,0,0.0,0.0,60,0.00,,,0.00,,2013-08-17 19:21:00,
2013-08-17 15:42:00,73.0,60.0,29.26,North,0,0.0,0.0,63,0.00,,,0.00,,2013-08-17 19:42:00,
2013-08-17 15:52:00,73.0,60.0,29.26,North,0,0.0,0.0,63,0.00,,,0.00,,2013-08-17 19:52:00,
2013-08-17 16:11:00,72.0,60.0,29.26,North,0,0.0,0.0,65,0.00,,,0.00,,2013-08-17 20:11:00,
2013-08-17 16:21:00,72.0,61.0,29.23,North,0,0.0,0.0,68,0.00,,,0.00,,2013-08-17 20:21:00,
2013-08-17 16:42:00,72.0,61.0,29.23,North,0,0.0,0.0,69,0.00,,,0.00,,2013-08-17 20:42:00,
2013-08-17 16:52:00,71.0,61.0,29.23,North,0,0.0,0.0,71,0.00,,,0.00,,2013-08-17 20:52:00,
2013-08-17 17:11:00,69.0,62.0,29.23,WNW,299,6.0,9.0,78,0.00,,,0.00,,2013-08-17 21:11:00,
2013-08-17 17:22:00,69.0,62.0,29.23,WNW,299,6.0,9.0,78,0.00,,,0.00,,2013-08-17 21:22:00,
2013-08-17 17:42:00,67.0,62.0,29.26,WNW,288,5.0,7.0,84,0.00,,,0.00,,2013-08-17 21:42:00,
2013-08-17 17:54:00,67.0,64.0,29.26,NW,307,4.0,7.0,91,0.00,,,0.00,,2013-08-17 21:54:00,
2013-08-17 18:03:00,67.0,64.0,29.26,NW,307,4.0,7.0,91,0.00,,,0.00,,2013-08-17 22:03:00,
2013-08-17 18:13:00,67.0,64.0,29.26,NW,307,4.0,7.0,91,0.00,,,0.00,,2013-08-17 22:13:00,
2013-08-17 18:23:00,66.0,64.0,29.26,North,0,0.0,0.0,93,0.31,,,0.31,,2013-08-17 22:23:00,
2013-08-17 18:42:00,65.0,63.0,29.26,North,0,0.0,0.0,94,0.39,,,0.39,,2013-08-17 22:42:00,
2013-08-17 18:52:00,65.0,63.0,29.26,North,0,0.0,0.0,94,0.39,,,0.39,,2013-08-17 22:52:00,
2013-08-17 19:11:00,65.0,63.0,29.26,North,0,0.0,0.0,94,0.43,,,0.43,,2013-08-17 23:11:00,
2013-08-17 19:22:00,65.0,64.0,29.26,North,0,0.0,5.0,95,0.20,,,0.55,,2013-08-17 23:22:00,
2013-08-17 19:42:00,65.0,64.0,29.26,North,0,0.0,0.0,95,0.16,,,0.55,,2013-08-17 23:42:00,
2013-08-17 19:52:00,64.0,63.0,29.26,North,0,0.0,0.0,95,0.16,,,0.59,,2013-08-17 23:52:00,
2013-08-17 20:12:00,64.0,63.0,29.26,North,0,0.0,0.0,96,0.12,,,0.59,,2013-08-18 00:12:00,
2013-08-17 20:21:00,64.0,63.0,29.26,North,0,0.0,0.0,96,0.08,,,0.59,,2013-08-18 00:21:00,
2013-08-17 20:42:00,64.0,63.0,29.26,North,0,0.0,0.0,97,0.08,,,0.63,,2013-08-18 00:42:00,
2013-08-17 20:52:00,64.0,63.0,29.26,North,0,0.0,0.0,97,0.04,,,0.63,,2013-08-18 00:52:00,
2013-08-17 21:01:00,64.0,63.0,29.26,North,0,0.0,0.0,97,0.04,,,0.63,,2013-08-18 01:01:00,
2013-08-17 21:11:00,64.0,63.0,29.26,North,0,0.0,0.0,97,0.04,,,0.63,,2013-08-18 01:11:00,
2013-08-17 21:21:00,64.0,63.0,29.26,North,0,0.0,0.0,97,0.00,,,0.63,,2013-08-18 01:21:00,
2013-08-17 21:31:00,64.0,63.0,29.26,North,0,0.0,0.0,97,0.00,,,0.63,,2013-08-18 01:31:00,
2013-08-17 21:42:00,64.0,63.0,29.26,North,0,0.0,0.0,97,0.00,,,0.63,,2013-08-18 01:42:00,
2013-08-17 21:52:00,64.0,63.0,29.26,North,0,0.0,0.0,97,0.00,,,0.63,,2013-08-18 01:52:00,
2013-08-17 22:11:00,64.0,63.0,29.26,North,0,0.0,0.0,97,0.00,,,0.63,,2013-08-18 02:11:00,
2013-08-17 22:21:00,64.0,63.0,29.29,North,0,0.0,0.0,97,0.00,,,0.63,,2013-08-18 02:21:00,
2013-08-17 22:42:00,64.0,63.0,29.29,North,0,0.0,0.0,97,0.00,,,0.63,,2013-08-18 02:42:00,
2013-08-17 22:52:00,64.0,63.0,29.29,North,0,0.0,0.0,97,0.00,,,0.63,,2013-08-18 02:52:00,
2013-08-17 23:02:00,64.0,63.0,29.29,North,0,0.0,0.0,97,0.00,,,0.63,,2013-08-18 03:02:00,
2013-08-17 23:11:00,64.0,63.0,29.29,North,0,0.0,0.0,97,0.00,,,0.63,,2013-08-18 03:11:00,
2013-08-17 23:22:00,64.0,63.0,29.29,North,0,0.0,0.0,97,0.00,,,0.63,,2013-08-18 03:22:00,
2013-08-17 23:43:00,64.0,63.0,29.29,North,0,0.0,0.0,97,0.00,,,0.63,,2013-08-18 03:43:00,
2013-08-17 23:53:00,64.0,63.0,29.29,North,0,0.0,0.0,97,0.00,,,0.63,,2013-08-18 03:53:00,